Weather History for Point Lay, AK

Change the Weather History Date:

Wednesday, January 2, 2013

  Actual Average Record
Temperature  
Mean Temperature -6 °F -  
Max Temperature -4 °F -7 °F 30 °F (2004)
Min Temperature -7 °F -16 °F -42 °F (2007)
Degree Days  
Heating Degree Days 70    
Moisture  
Dew Point -11 °F    
Average Humidity 81    
Maximum Humidity 84    
Minimum Humidity 75    
Precipitation  
Precipitation 0.00 in - - ()
Sea Level Pressure  
Sea Level Pressure 29.64 in    
Wind  
Wind Speed 23 mph (NE)    
Max Wind Speed 26 mph    
Max Gust Speed 33 mph    
Visibility 3 miles    
Events Snow    
Averages and records for this station are not official NWS values.
T = Trace of Precipitation, MM = Missing Value Source: NWS Daily Summary

Daily Weather History Graph

Daily Weather History Graph

Search for Another Location

Airport:

Trip Planner

Search our weather history database for the weather conditions in past years. The results will help you decide how hot, cold, wet, or windy it might be!

Date:

Astronomy

Jan. 02, 2013 Rise Set
Actual Time 1:23 PM AKST 2:28 PM AKST
Civil Twilight 11:33 AM AKST 4:19 PM AKST
Nautical Twilight 9:53 AM AKST 5:59 PM AKST
Astronomical Twilight 8:36 AM AKST 7:17 PM AKST
Moon No Moon Rise 12:12 PM AKST (1/2)
Length of Visible Light 4h 45m
Length of Day
1h 04m
Waning Gibbous, 74% of the Moon is Illuminated
Jan 2
Waning Gibbous
Jan 4
Last Quarter
Jan 11
New
Jan 18
First Quarter
Jan 26
Full

Hourly Weather History & Observations

Time (AKST) Temp. Windchill Dew Point Humidity Pressure Visibility Wind Dir Wind Speed Gust Speed Precip Events Conditions
12:56 AM -4.9 °F -29.8 °F -9.9 °F 79% 29.63 in - NE 23.0 mph - N/A   Clear
1:56 AM -4.9 °F -31.2 °F -9.9 °F 79% 29.62 in - NE 26.5 mph - N/A   Clear
2:31 AM -5.8 °F -32.0 °F -9.4 °F 84% 29.60 in 2.5 mi NE 25.3 mph 33.4 mph N/A   Haze
2:56 AM -4.9 °F -30.3 °F -9.9 °F 79% 29.62 in 2.0 mi NE 24.2 mph 31.1 mph N/A   Haze
3:17 AM -4.0 °F -29.1 °F -9.4 °F 78% 29.61 in 3.0 mi NE 24.2 mph - N/A   Haze
3:56 AM -4.9 °F -30.3 °F -9.9 °F 79% 29.62 in 3.0 mi NE 24.2 mph - N/A   Haze
4:56 AM -6.0 °F -31.2 °F -10.8 °F 79% 29.62 in 5.0 mi NE 23.0 mph - N/A   Haze
5:56 AM -4.9 °F -30.3 °F -9.9 °F 79% 29.61 in 5.0 mi NE 24.2 mph - N/A   Haze
6:56 AM -4.0 °F -29.6 °F -9.9 °F 76% 29.61 in 3.0 mi NE 25.3 mph - N/A   Haze
7:56 AM -4.0 °F -27.6 °F -9.9 °F 76% 29.62 in 5.0 mi NE 20.7 mph - N/A   Haze
8:56 AM -4.9 °F -29.3 °F -9.9 °F 79% 29.62 in 7.0 mi NE 21.9 mph - N/A   Partly Cloudy
9:56 AM -4.9 °F -28.8 °F -10.8 °F 76% 29.63 in 10.0 mi NE 20.7 mph - N/A   Clear
10:56 AM -6.0 °F -29.6 °F -11.9 °F 75% 29.64 in 8.0 mi NE 19.6 mph - N/A   Clear
11:56 AM -6.9 °F -31.4 °F -11.9 °F 79% 29.65 in 10.0 mi NE 20.7 mph - N/A   Scattered Clouds
12:56 PM -6.0 °F -29.0 °F -11.9 °F 75% 29.65 in 9.0 mi NE 18.4 mph - N/A   Mostly Cloudy
1:56 PM -6.9 °F -31.4 °F -11.9 °F 79% 29.65 in 7.0 mi NE 20.7 mph - N/A   Mostly Cloudy
2:56 PM -7.6 °F -33.4 °F -11.2 °F 84% 29.63 in 3.0 mi NE 23.0 mph - N/A   Haze
3:07 PM -7.6 °F -32.9 °F -11.2 °F 84% 29.63 in 1.8 mi ENE 21.9 mph - 0.00 in Snow Light Snow
3:20 PM -7.6 °F -32.9 °F -11.2 °F 84% 29.63 in 1.2 mi NE 21.9 mph - 0.00 in Snow Light Snow
3:35 PM -7.6 °F -32.9 °F -11.2 °F 84% 29.63 in 1.8 mi ENE 21.9 mph - 0.00 in Snow Light Snow
3:43 PM -7.6 °F -32.9 °F -11.2 °F 84% 29.63 in 3.0 mi ENE 21.9 mph - 0.00 in Snow Light Snow
3:56 PM -6.0 °F -31.2 °F -11.9 °F 75% 29.65 in 3.0 mi ENE 23.0 mph - 0.00 in Snow Light Snow
4:10 PM -5.8 °F -30.5 °F -11.2 °F 77% 29.63 in 2.0 mi ENE 21.9 mph - 0.00 in Snow Light Snow
4:22 PM -5.8 °F -29.9 °F -11.2 °F 77% 29.63 in 1.5 mi ENE 20.7 mph - 0.00 in Snow Light Snow
4:31 PM -5.8 °F -31.0 °F -11.2 °F 77% 29.63 in 1.0 mi ENE 23.0 mph - 0.00 in Snow Light Snow
4:41 PM -7.6 °F -32.3 °F -11.2 °F 84% 29.63 in 0.8 mi ENE 20.7 mph - 0.00 in Snow Light Snow
4:56 PM -6.9 °F -31.9 °F -11.9 °F 79% 29.65 in 1.0 mi NE 21.9 mph 28.8 mph 0.00 in Snow Light Snow
5:10 PM -7.6 °F -32.3 °F -11.2 °F 84% 29.63 in 1.2 mi ENE 20.7 mph - 0.00 in Snow Light Snow
5:20 PM -7.6 °F -32.3 °F -11.2 °F 84% 29.64 in 1.5 mi ENE 20.7 mph - 0.00 in Snow Light Snow
5:30 PM -5.8 °F -30.5 °F -11.2 °F 77% 29.64 in 2.0 mi ENE 21.9 mph - 0.00 in Snow Light Snow
5:49 PM -5.8 °F -31.0 °F -11.2 °F 77% 29.64 in 1.8 mi ENE 23.0 mph - 0.00 in Snow Light Snow
5:56 PM -7.6 °F -32.9 °F -11.2 °F 84% 29.64 in 1.8 mi ENE 21.9 mph - N/A Snow Light Snow
6:04 PM -5.8 °F -29.4 °F -11.2 °F 77% 29.64 in 2.0 mi ENE 19.6 mph - 0.00 in Snow Light Snow
6:32 PM -7.6 °F -31.7 °F -11.2 °F 84% 29.64 in 2.0 mi NE 19.6 mph - 0.00 in Snow Light Snow
6:44 PM -7.6 °F -31.7 °F -11.2 °F 84% 29.64 in 1.8 mi NE 19.6 mph - 0.00 in Snow Light Snow
6:56 PM -6.9 °F -30.8 °F -11.9 °F 79% 29.65 in 1.8 mi NE 19.6 mph - 0.00 in   Overcast
7:10 PM -7.6 °F -31.7 °F -11.2 °F 84% 29.64 in 2.0 mi NE 19.6 mph - 0.00 in   Haze
7:40 PM -7.6 °F -32.3 °F -11.2 °F 84% 29.64 in 1.5 mi NE 20.7 mph - 0.00 in Snow Light Snow
7:56 PM -6.9 °F -30.8 °F -11.9 °F 79% 29.65 in 1.2 mi NE 19.6 mph - 0.00 in Snow Light Snow
8:18 PM -7.6 °F -32.9 °F -11.2 °F 84% 29.64 in 1.0 mi NE 21.9 mph - 0.00 in Snow Light Snow
8:38 PM -7.6 °F -33.4 °F -11.2 °F 84% 29.64 in - NE 23.0 mph - 0.00 in Snow Light Snow
8:56 PM -7.6 °F -32.3 °F -11.2 °F 84% 29.64 in - NE 20.7 mph - N/A Snow Light Snow
9:13 PM -7.6 °F -32.9 °F -11.2 °F 84% 29.64 in - NE 21.9 mph - 0.00 in Snow Light Snow
9:21 PM -7.6 °F -32.9 °F -11.2 °F 84% 29.64 in - NE 21.9 mph - 0.00 in Snow Light Snow
9:46 PM -7.6 °F -33.4 °F -11.2 °F 84% 29.65 in - NE 23.0 mph - 0.00 in Snow Light Snow
9:56 PM -6.9 °F -31.9 °F -11.9 °F 79% 29.67 in - NE 21.9 mph - 0.00 in Snow Light Snow
10:56 PM -6.9 °F -31.9 °F -11.9 °F 79% 29.67 in - NE 21.9 mph - 0.00 in Snow Light Snow
11:08 PM -7.6 °F -32.9 °F -11.2 °F 84% 29.66 in 1.5 mi NE 21.9 mph - 0.00 in Snow Light Snow
11:26 PM -7.6 °F -32.9 °F -11.2 °F 84% 29.66 in 2.0 mi NE 21.9 mph - 0.00 in Snow Light Snow
11:48 PM -7.6 °F -33.4 °F -11.2 °F 84% 29.65 in 2.0 mi ENE 23.0 mph - 0.00 in   Overcast
11:56 PM -7.6 °F -32.9 °F -11.2 °F 84% 29.66 in 2.5 mi ENE 21.9 mph - N/A   Overcast